Find Starlink 38138

NORAD ID: 100384 Int'l Des: 2026-190 Owner: SPXS Country: US Constellation: starlink operational

Aktuelle Ansicht

3D-Globus wird geladen...

About Starlink 38138

Starlink 38138 (NORAD 100384) is a starlink constellation satellite launched Aug 19, 2026 by SPXS of US. with a mass of 575.00 kg.

Nächste Überflüge

Passes for default location (London). Set your location on the main map for personalized predictions.

Höhenverlauf

Loading altitude history...

Zweizeiliger Elementsatz

1 A0384U 26190P 26255.56308029 .00155651 00000-0 99384-3 0 9995
2 A0384 97.2814 109.4880 0001210 48.9921 311.1449 15.75913764 5090
Epoch: 12. Sept. 2026 • Age: 16 hours

Aktueller Status

Höhe 350.4 km
Apogäum / Perigäum N/A
Geschwindigkeit 7.70 km/s
Subsatellitenpunkt -21.14°S, 148.9°W
Startdatum 19. Aug. 2026
Alter 25 days
Typ internet

Technische Details

Klassifizierung Payload
Masse 575.00 kg
Trockenmasse 530.00 kg
Gesamtmasse 575.00 kg
Länge 0.30 m
Durchmesser 4.10 m
Spannweite 29.00 m
Form Box
Hersteller SPXS
Bus-Typ Starlink V2MO
Phasenstatus In Orbit
Besitzer/Staat SPXS/US

Most Searched